|
NORAD ID: 36583 Int'l Code: 2010-021C
Perigee: 286.7 km
Apogee: 34,925.3 km
Inclination: 3.0 °
Period: 615.8 minutes
Semi major axis: 23977 km
Launch date: May 21, 2010
Source: France (FR)
Note: This is a ROCKET BODY
Two Line Element Set (TLE):
1 36583U 10021C 13139.66008137 .00001063 00000-0 44556-3 0 6799
2 36583 003.0416 301.2611 7223288 007.9880 010.4873 02.33835251 25247
Source:
NASA's NSSDC Master Catalog entry for ARIANE 5 R/B
|